Kithira Airport, Greece

6:52 AM EET on March 25, 2017 (GMT +0200)
Kithira Airport

Weather History for 16726 - May, 2013

Change the Weather History Date:

Sunday, May 5, 2013

  Actual Average Record
Temperature  
Mean Temperature 70 °F -  
Max Temperature 84 °F 77 °F - ()
Min Temperature 57 °F 55 °F - ()
Cooling Degree Days 6    
Growing Degree Days 20 (Base 50)    
Moisture  
Dew Point 55 °F    
Average Humidity 53    
Maximum Humidity 88    
Minimum Humidity 30    
Precipitation  
Precipitation 0.00 in 0.03 in - ()
Sea Level Pressure  
Sea Level Pressure 29.98 in    
Wind  
Wind Speed 3 mph ()    
Max Wind Speed 10 mph    
Max Gust Speed -    
Visibility 6.2 miles    
Events      
T = Trace of Precipitation, MM = Missing Value Source: Averaged Metar Reports

Daily Weather History Graph

Daily Weather History Graph

Search for Another Location

Airport or City:

Trip Planner

Search our weather history database for the weather conditions in past years. The results will help you decide how hot, cold, wet, or windy it might be!

Date:

Astronomy

May. 05, 2013 Rise Set
Actual Time 6:33 AM EEST 8:24 PM EEST
Civil Twilight 6:04 AM EEST 8:52 PM EEST
Nautical Twilight 5:30 AM EEST 9:27 PM EEST
Astronomical Twilight 4:54 AM EEST 10:03 PM EEST
Moon 3:47 AM EEST (5/5) 4:10 PM EEST (5/5)
Length of Visible Light 14h 47m
Length of Day
13h 51m
Waning Crescent, 21% of the Moon is Illuminated
May 5
Waning Crescent
May 10
New
May 18
First Quarter
May 25
Full
May 31
Last Quarter

Hourly Weather History & Observations

Time (EEST) Temp. Heat Index Dew Point Humidity Pressure Visibility Wind Dir Wind Speed Gust Speed Precip Events Conditions
2:50 AM 57.2 °F - 53.6 °F 88% 29.95 in - Calm Calm - N/A   Clear
5:50 AM 59.0 °F - 51.8 °F 77% 29.92 in - NNW 8.1 mph - N/A   Clear
6:20 AM 57.2 °F - 51.8 °F 82% 29.92 in - Calm Calm - N/A   Clear
6:50 AM 59.0 °F - 51.8 °F 77% 29.92 in - Calm Calm - N/A   Clear
7:20 AM 62.6 °F - 51.8 °F 68% 29.92 in - Calm Calm - N/A   Clear
7:50 AM 62.6 °F - 55.4 °F 77% 29.95 in - Calm Calm - N/A   Clear
8:20 AM 66.2 °F - 55.4 °F 68% 29.95 in - Calm Calm - N/A   Clear
8:50 AM 69.8 °F - 55.4 °F 60% 29.95 in - Calm Calm - N/A   Clear
9:20 AM 73.4 °F - 57.2 °F 57% 29.95 in 6.2 mi Calm Calm - N/A   Partly Cloudy
9:50 AM 78.8 °F - 57.2 °F 47% 29.98 in 6.2 mi Calm Calm - N/A   Partly Cloudy
10:20 AM 78.8 °F - 59.0 °F 51% 29.98 in 6.2 mi Calm Calm - N/A   Partly Cloudy
10:50 AM 80.6 °F 80.5 °F 55.4 °F 42% 29.98 in 6.2 mi Calm Calm - N/A   Partly Cloudy
11:20 AM 80.6 °F 80.3 °F 53.6 °F 39% 29.98 in 6.2 mi South 5.8 mph - N/A   Partly Cloudy
11:50 AM 82.4 °F - 51.8 °F 35% 29.98 in 6.2 mi South 6.9 mph - N/A   Partly Cloudy
12:20 PM 82.4 °F - 50.0 °F 32% 29.98 in - South 6.9 mph - N/A   Clear
12:50 PM 82.4 °F - 51.8 °F 35% 29.98 in - SSW 5.8 mph - N/A   Clear
1:20 PM 84.2 °F - 51.8 °F 33% 29.98 in - South 5.8 mph - N/A   Clear
1:50 PM 84.2 °F - 51.8 °F 33% 29.98 in - SSW 6.9 mph - N/A   Clear
2:20 PM 84.2 °F 82.8 °F 53.6 °F 35% 29.98 in - SW 6.9 mph - N/A   Clear
2:50 PM 84.2 °F 82.8 °F 53.6 °F 35% 29.98 in - SSW 6.9 mph - N/A   Clear
3:20 PM 84.2 °F - 51.8 °F 33% 29.98 in - SSW 10.4 mph - N/A   Clear
3:50 PM 84.2 °F - 50.0 °F 30% 29.98 in 6.2 mi South 6.9 mph - N/A   Scattered Clouds
4:20 PM 82.4 °F 82.0 °F 57.2 °F 42% 29.98 in 6.2 mi SSW 6.9 mph - N/A   Scattered Clouds
4:50 PM 82.4 °F 82.5 °F 59.0 °F 45% 29.98 in 6.2 mi South 6.9 mph - N/A   Scattered Clouds
5:20 PM 80.6 °F 81.5 °F 60.8 °F 51% 29.98 in 6.2 mi South 8.1 mph - N/A   Scattered Clouds
5:50 PM 77.0 °F - 59.0 °F 54% 29.98 in 6.2 mi South 9.2 mph - N/A   Scattered Clouds
6:20 PM 77.0 °F - 59.0 °F 54% 29.98 in 6.2 mi SSE 6.9 mph - N/A   Scattered Clouds
6:50 PM 77.0 °F - 59.0 °F 54% 29.98 in 6.2 mi South 6.9 mph - N/A   Scattered Clouds
7:20 PM 75.2 °F - 59.0 °F 57% 30.01 in 6.2 mi Calm Calm - N/A   Scattered Clouds
7:50 PM 73.4 °F - 59.0 °F 61% 30.04 in 6.2 mi Calm Calm - N/A   Scattered Clouds
8:20 PM 73.4 °F - 59.0 °F 61% 30.04 in 6.2 mi Calm Calm - N/A   Scattered Clouds
8:50 PM 71.6 °F - 59.0 °F 64% 30.06 in 6.2 mi Calm Calm - N/A   Scattered Clouds
11:50 PM 71.6 °F - 59.0 °F 64% 30.01 in 6.2 mi Calm Calm - N/A   Scattered Clouds